Zurück zum Katalog

STARLINK-3599

AktivKommunikationVLEO
NORAD 51814·PAYLOAD·🇺🇸 United States

Gestartet Feb 25, 2022 von Vandenberg Space Force Base

Loading…

Nächste Überflüge (nächste 24 Stunden)

TLE

AktuellSource: CelesTrak SupGP

Epoche: Sep 15, 2026, 01:56 UTC

1 51814C 22017AY  26258.08104167 -.00012802  00000+0 -36656-3 0  2582
2 51814  53.1578 189.5489 0001268  87.0247 104.5661 15.35380161    16

Verfolge STARLINK-3599 in Echtzeit mit AllMySat

Download on the App Store